Wind_Speed
9 12 14 15 16 17 18 20 21 23 26 28 30 30 31 33 33 34 33 33 33 33 33 33 34 33 32 32 32 32 31 30 30 29 29 30 29 29
7 10 11 13 15 15 17 18 19 21 23 25 28 29 29 30 31 33 33 33 33 33 33 33 34 34 34 34 33 32 32 31 31 31 31 30 30 30
6 7 9 10 13 14 15 17 18 19 21 24 25 27 29 30 30 31 32 33 34 34 34 33 33 34 34 34 35 35 34 34 33 33 33 32 31 32
4 6 7 9 10 12 14 16 17 19 20 21 23 24 27 28 29 30 31 32 32 33 34 34 34 34 35 35 36 36 36 35 35 35 35 34 34 33
3 4 6 7 9 10 12 14 16 18 20 21 22 24 25 26 27 29 30 31 32 32 33 34 34 34 34 35 35 36 36 35 35 35 35 35 35 35
3 4 5 6 8 9 12 13 15 17 19 20 22 23 24 25 26 27 28 30 30 32 33 34 35 35 34 34 34 35 35 36 36 36 36 36 35 35
3 4 4 5 6 8 9 11 13 14 16 18 19 21 23 24 25 25 26 28 29 30 32 34 34 35 35 34 34 35 35 35 36 36 37 37 36 36
4 4 4 4 5 6 7 9 10 12 14 15 17 18 19 20 22 23 25 26 26 28 30 32 33 34 35 35 35 35 35 35 36 36 36 37 37 37
6 6 5 5 6 7 8 9 10 11 13 15 17 17 19 20 21 22 22 24 25 26 28 28 29 31 32 34 35 35 35 35 35 36 37 37 37 37
8 7 7 7 7 8 9 10 10 11 13 14 16 18 19 20 21 22 23 24 25 26 27 27 28 28 30 31 33 34 34 35 36 36 37 37 37 38
9 9 9 9 9 9 9 10 11 12 13 14 15 17 19 20 21 21 23 24 25 26 26 27 28 29 30 32 33 33 34 34 35 36 37 38 38 39
10 10 10 10 10 10 10 11 11 12 13 14 15 17 18 19 20 22 22 23 24 26 26 26 27 29 30 32 33 34 34 34 35 35 36 36 37 38
12 12 12 12 12 12 12 13 13 13 14 14 16 17 18 18 20 21 22 23 24 26 26 25 26 28 29 30 32 33 34 34 35 35 36 37 38 38
13 13 13 13 14 14 14 14 14 15 15 16 17 18 19 19 20 21 22 23 25 25 26 26 26 27 28 29 30 32 33 34 34 35 36 36 37 37
15 15 15 15 15 15 15 15 16 16 17 17 18 19 20 21 22 23 23 24 25 27 27 27 27 28 28 28 29 31 32 33 34 35 36 36 37 37
17 17 17 17 17 17 17 17 18 18 19 19 20 20 21 22 23 24 25 25 26 27 28 29 29 29 30 30 30 31 32 33 34 35 35 36 36 36
19 19 19 18 18 18 18 19 20 20 21 21 22 22 22 23 24 25 27 27 27 28 28 29 31 31 32 32 32 32 33 33 34 35 36 36 36 36
22 21 21 21 21 21 21 22 22 22 23 24 24 24 25 26 26 27 28 28 28 29 30 30 31 32 32 32 33 33 34 35 35 35 35 36 35 36
24 23 23 23 23 24 24 24 24 25 25 26 27 27 28 28 29 29 30 31 31 32 32 33 34 34 35 35 35 36 36 36 36 36 36 36 36 37
25 25 25 25 25 26 26 27 27 27 27 28 28 29 30 31 31 32 33 34 34 35 35 36 36 37 37 38 38 38 38 38 38 38 38 38 38 38
27 27 27 27 27 28 28 29 29 30 30 31 31 32 33 33 34 35 36 37 38 38 39 39 39 40 40 40 40 40 40 41 41 40 40 40 40 39
29 29 29 29 30 30 31 31 32 32 33 34 34 34 35 36 36 37 38 39 40 41 41 41 42 42 42 42 42 42 42 42 42 42 42 42 42 41
31 32 32 32 32 32 33 34 34 34 35 35 36 37 37 38 39 40 41 42 42 43 43 44 44 45 45 45 44 44 44 43 43 43 43 43 43 43
Wind_Direction
231 231 229 230 233 232 232 232 231 230 232 232 232 232 232 233 233 234 234 235 236 236 238 241 242 242 243 245 247 249 252 253 254 256 257 257 257 260
230 231 235 237 235 235 236 236 236 235 235 234 234 235 234 234 234 235 237 238 240 241 242 242 243 244 246 247 248 250 252 254 255 256 257 257 259 260
233 235 238 238 237 236 235 235 236 236 235 234 235 237 235 235 236 236 238 240 242 243 245 245 246 247 248 249 250 251 252 253 254 256 257 257 259 261
241 241 241 241 238 235 235 235 236 237 236 234 234 235 236 238 238 238 239 241 243 244 246 246 247 248 249 251 252 252 253 254 255 256 258 259 261 261
267 256 250 250 246 241 239 240 240 238 238 237 237 238 240 239 238 239 240 242 243 245 246 247 248 248 250 251 253 252 252 254 256 257 258 259 260 261
319 286 265 259 253 247 244 243 243 242 240 240 240 241 243 242 240 241 242 244 245 246 247 248 250 250 251 251 252 253 253 254 256 258 257 257 259 261
341 317 288 274 260 250 248 246 245 244 242 243 243 243 245 244 243 244 245 246 247 248 249 249 251 251 252 252 253 255 256 256 257 257 258 258 259 261
337 330 314 295 272 259 253 250 248 247 246 246 246 246 245 246 244 247 248 248 249 249 251 252 253 253 253 253 254 255 256 256 258 257 257 259 259 259
326 318 313 303 288 274 267 262 257 252 249 249 249 249 248 249 249 249 250 251 252 253 254 256 257 256 255 255 255 256 256 257 258 258 258 259 260 261
329 320 312 303 296 284 272 265 262 258 254 252 252 251 253 253 253 254 254 253 255 255 257 259 259 259 259 258 258 258 259 259 259 258 259 260 261 262
327 318 309 303 298 293 283 274 267 263 259 257 257 256 257 256 255 258 258 257 258 258 258 259 261 260 261 261 261 261 261 261 260 259 260 261 261 262
322 316 307 300 295 290 285 280 274 270 268 263 260 260 261 261 261 261 260 259 260 260 262 263 263 263 263 263 263 262 261 261 261 260 260 260 261 263
317 312 307 300 295 290 286 281 277 274 271 269 266 265 264 264 263 263 262 262 262 262 263 265 266 266 265 264 263 263 263 263 262 262 261 262 262 263
313 309 305 300 295 290 287 284 280 277 275 273 272 268 266 265 264 264 264 265 265 263 264 265 267 268 267 265 264 264 265 265 264 264 265 264 263 263
308 304 302 300 296 291 289 286 284 281 280 278 277 273 270 269 268 267 267 267 266 266 267 268 268 268 268 269 268 267 266 266 267 266 266 266 265 265
305 301 299 297 295 292 289 287 284 282 281 280 279 278 274 273 273 271 269 269 269 269 268 268 268 269 270 271 270 269 268 268 268 268 267 266 266 265
304 301 299 296 293 292 289 287 285 283 281 280 279 278 277 275 275 274 273 272 273 272 271 271 271 271 271 271 271 271 270 270 270 269 268 267 265 265
301 300 297 294 293 292 290 288 286 285 283 281 280 278 277 277 277 276 276 275 275 274 273 272 272 272 273 272 271 271 271 271 270 269 269 269 267 266
299 298 296 295 292 291 290 289 287 285 284 283 282 280 279 278 278 278 279 278 278 277 276 275 275 274 274 274 273 272 272 271 270 269 269 269 268 267
297 296 295 295 293 291 290 288 287 285 285 284 284 283 281 281 280 280 280 280 279 278 277 277 276 275 275 274 273 272 272 271 270 269 268 268 268 268
296 295 295 294 294 293 291 289 287 286 285 285 285 284 283 282 281 281 280 280 279 279 278 277 276 274 274 274 273 272 271 270 269 268 268 267 268 268
295 295 295 294 294 293 292 290 288 287 285 285 284 284 284 284 283 283 282 282 281 279 278 277 276 275 274 273 272 271 271 270 269 268 267 267 266 266
294 294 294 294 293 293 292 290 289 288 287 286 285 285 284 284 284 284 283 283 282 281 280 279 278 276 275 274 273 272 271 270 269 268 268 268 267 266
Height
5763 5765 5767 5768 5770 5772 5774 5777 5780 5782 5785 5788 5791 5794 5797 5801 5805 5808 5812 5815 5819 5822 5825 5828 5830 5833 5835 5837 5839 5840 5842 5843 5845 5846 5847 5848 5848 5849
5762 5763 5764 5765 5767 5769 5771 5773 5775 5777 5779 5782 5785 5788 5792 5795 5798 5802 5806 5809 5812 5815 5818 5820 5823 5825 5828 5830 5832 5833 5835 5836 5838 5839 5840 5840 5841 5842
5760 5761 5762 5763 5764 5765 5767 5769 5770 5772 5774 5776 5779 5782 5786 5789 5793 5796 5799 5802 5805 5808 5810 5813 5815 5818 5820 5822 5824 5826 5827 5829 5830 5831 5832 5833 5834 5835
5759 5760 5760 5761 5761 5762 5763 5765 5766 5768 5770 5772 5774 5777 5780 5783 5786 5789 5792 5795 5798 5800 5803 5805 5807 5810 5812 5813 5815 5817 5819 5820 5822 5823 5824 5825 5826 5826
5759 5759 5759 5759 5759 5759 5760 5761 5763 5764 5766 5768 5770 5772 5774 5777 5780 5783 5785 5788 5791 5793 5795 5797 5799 5801 5803 5805 5807 5808 5810 5812 5813 5814 5815 5816 5817 5818
5758 5758 5757 5757 5757 5757 5758 5758 5759 5760 5762 5763 5765 5767 5769 5771 5773 5776 5779 5781 5783 5786 5788 5790 5791 5793 5795 5796 5798 5799 5801 5802 5804 5805 5806 5807 5808 5809
5757 5757 5756 5755 5755 5755 5755 5756 5756 5757 5758 5759 5760 5762 5764 5766 5768 5770 5772 5774 5776 5778 5780 5782 5783 5785 5786 5788 5789 5791 5792 5793 5795 5796 5797 5798 5799 5800
5757 5756 5755 5754 5754 5753 5753 5753 5753 5754 5755 5755 5756 5758 5759 5761 5763 5764 5766 5768 5770 5772 5773 5774 5775 5776 5778 5779 5780 5782 5783 5784 5785 5786 5787 5788 5789 5790
5756 5755 5754 5753 5752 5751 5751 5750 5750 5751 5751 5752 5753 5753 5755 5756 5758 5759 5760 5761 5763 5764 5765 5766 5767 5768 5769 5770 5772 5773 5774 5775 5776 5777 5778 5779 5779 5780
5755 5753 5752 5751 5750 5749 5749 5748 5748 5748 5748 5748 5749 5750 5750 5751 5753 5754 5754 5755 5756 5757 5758 5759 5759 5760 5761 5761 5762 5763 5764 5766 5766 5767 5768 5769 5769 5770
5753 5751 5750 5749 5748 5747 5746 5745 5745 5745 5745 5745 5745 5745 5746 5746 5747 5748 5749 5749 5750 5750 5751 5752 5752 5752 5752 5753 5753 5754 5755 5756 5757 5757 5758 5759 5759 5759
5751 5749 5748 5746 5745 5744 5743 5742 5742 5741 5741 5741 5741 5741 5741 5741 5742 5742 5742 5743 5743 5743 5743 5744 5744 5744 5744 5744 5745 5745 5746 5746 5747 5747 5748 5748 5749 5749
5749 5747 5745 5744 5742 5741 5740 5739 5738 5738 5737 5737 5736 5736 5736 5736 5736 5736 5736 5736 5736 5736 5736 5736 5736 5736 5736 5736 5736 5736 5736 5737 5737 5737 5737 5738 5738 5738
5746 5744 5742 5740 5739 5738 5736 5735 5735 5734 5733 5733 5732 5731 5731 5731 5731 5730 5730 5730 5729 5729 5729 5729 5729 5728 5728 5728 5728 5727 5727 5727 5727 5727 5727 5727 5727 5727
5743 5740 5738 5736 5735 5734 5732 5731 5730 5729 5729 5728 5727 5726 5725 5725 5724 5724 5723 5723 5723 5722 5721 5721 5721 5720 5720 5719 5719 5718 5718 5717 5717 5717 5717 5717 5717 5717
5738 5736 5734 5732 5730 5729 5728 5726 5725 5724 5723 5722 5721 5720 5719 5718 5718 5717 5716 5716 5715 5714 5713 5713 5712 5712 5711 5710 5710 5709 5709 5708 5708 5707 5707 5707 5707 5707
5733 5731 5729 5727 5726 5724 5723 5721 5720 5718 5717 5716 5715 5714 5713 5712 5711 5710 5709 5708 5707 5706 5705 5704 5703 5703 5702 5701 5700 5699 5699 5698 5698 5697 5697 5697 5697 5696
5728 5726 5724 5722 5720 5718 5717 5715 5713 5712 5711 5709 5708 5707 5706 5704 5703 5702 5701 5699 5698 5697 5696 5695 5694 5693 5692 5691 5691 5689 5688 5688 5687 5686 5686 5686 5686 5686
5722 5719 5717 5715 5713 5711 5710 5708 5706 5705 5703 5702 5700 5699 5697 5696 5694 5693 5692 5690 5689 5688 5687 5685 5684 5682 5682 5681 5680 5679 5678 5677 5676 5675 5675 5675 5674 5674
5715 5712 5710 5708 5706 5704 5702 5700 5698 5696 5695 5693 5691 5690 5688 5686 5685 5683 5682 5680 5679 5677 5676 5674 5673 5671 5670 5669 5669 5668 5666 5665 5664 5663 5663 5663 5663 5662
5707 5705 5702 5700 5698 5695 5693 5691 5689 5688 5686 5684 5682 5680 5678 5676 5674 5672 5671 5669 5667 5666 5664 5662 5661 5659 5657 5656 5656 5655 5654 5652 5651 5651 5650 5650 5650 5650
5698 5696 5694 5691 5689 5686 5684 5682 5680 5677 5676 5674 5672 5669 5667 5665 5663 5661 5659 5657 5655 5653 5651 5649 5647 5645 5643 5642 5641 5641 5640 5639 5638 5637 5637 5637 5636 5637
5689 5687 5684 5682 5679 5677 5674 5671 5669 5666 5664 5662 5660 5658 5655 5653 5651 5648 5646 5643 5641 5639 5636 5634 5633 5631 5629 5627 5626 5625 5625 5624 5623 5623 5623 5623 5622 5623